Wind_Speed
22 23 24 26 26 27 26 25 24 23 23 23 22 22 21 21 19 18 18 17 18 18 19 18 17 16 16 15 15 14 14 14 13 12 11 11 10 10 10 10 11 13 15
21 22 23 25 26 27 28 28 28 27 27 26 26 26 25 24 23 22 22 21 21 21 22 22 22 21 20 19 19 18 17 17 16 15 14 13 13 13 12 12 13 13 14
18 19 21 23 25 26 28 29 30 30 30 30 30 29 28 28 27 26 25 24 24 24 25 25 25 25 24 23 23 22 21 20 19 18 17 17 16 16 15 15 15 15 16
15 16 18 20 23 25 27 28 30 30 31 32 32 32 31 31 31 30 29 28 27 27 27 28 29 29 28 27 27 26 25 24 23 22 20 20 19 18 18 18 17 18 18
15 16 18 20 22 24 26 28 29 31 32 33 33 34 33 33 33 33 32 32 31 30 30 30 31 31 32 31 31 30 29 28 27 25 24 23 22 21 21 21 20 20 20
18 19 21 22 23 25 27 28 30 31 33 34 35 35 35 35 36 35 35 34 34 33 32 32 32 33 34 34 34 33 33 32 30 29 28 27 26 24 24 24 23 22 22
21 22 24 25 27 28 29 31 32 33 34 35 36 37 37 37 37 37 37 37 37 36 35 35 35 35 35 36 36 36 36 35 33 32 31 30 29 28 27 26 26 25 24
23 25 27 29 31 32 33 34 35 36 37 38 39 39 40 40 40 40 40 40 40 39 38 38 38 37 38 38 38 38 38 37 36 35 34 33 32 30 30 29 27 27 26
24 26 28 30 31 33 34 36 37 38 39 40 41 42 43 43 44 44 43 43 42 42 41 41 40 40 40 40 40 40 40 39 39 38 37 35 34 33 32 30 29 28 28
25 27 29 31 32 34 35 37 38 39 40 41 42 43 44 45 46 47 47 46 45 44 44 43 43 43 43 42 42 42 42 41 41 41 39 38 36 35 34 32 30 29 30
27 29 31 32 34 36 37 39 40 41 42 43 43 44 44 44 45 46 46 47 47 47 46 46 46 45 45 44 44 44 44 44 43 43 42 40 39 38 36 34 31 31 31
32 34 36 37 39 40 41 43 43 44 45 46 47 47 47 47 47 47 47 47 46 47 48 48 48 47 47 47 47 47 46 46 46 45 45 42 41 40 39 37 34 33 33
38 40 42 44 45 46 47 49 49 50 50 51 51 51 51 51 50 50 50 49 49 48 48 48 49 49 49 49 50 49 48 48 48 48 47 45 44 43 42 40 38 36 35
43 45 47 49 50 52 53 54 54 55 56 56 56 56 56 55 54 54 54 53 52 52 51 51 50 50 51 51 51 50 50 50 50 50 49 48 47 45 44 43 41 39 37
47 49 52 54 56 57 59 60 61 61 61 62 62 62 61 61 60 59 58 57 56 55 55 54 54 53 52 52 52 52 50 51 51 51 51 50 49 48 47 46 44 42 40
53 55 58 60 62 64 65 67 68 68 69 69 68 68 67 66 65 64 63 63 61 60 59 58 58 57 56 55 54 53 52 51 52 52 52 51 51 50 49 48 47 45 43
58 61 64 66 68 70 72 73 74 75 75 76 75 75 74 72 71 69 68 66 66 64 63 62 61 60 59 58 57 56 55 54 52 52 52 52 52 52 51 50 49 47 46
65 68 70 72 74 76 77 78 79 80 80 80 81 80 80 79 77 75 73 71 69 68 67 66 65 64 63 62 60 59 58 56 55 54 53 53 53 53 52 52 51 50 49
70 73 76 78 80 81 81 81 80 80 80 80 81 82 83 82 82 80 78 76 74 72 71 70 69 67 66 65 64 63 61 59 58 57 56 55 55 54 54 54 53 53 51
76 78 80 82 82 81 80 78 77 75 74 74 75 77 80 82 84 84 82 80 78 76 74 73 72 71 70 68 68 66 64 63 61 60 60 59 58 57 56 56 56 55 54
78 80 80 79 77 74 71 68 64 62 60 59 60 64 68 73 78 82 84 84 82 79 78 76 75 74 73 72 71 70 68 67 65 63 62 62 61 60 60 59 58 58 57
78 78 76 72 68 64 61 57 54 52 49 48 48 49 53 58 65 73 80 83 85 84 81 80 78 77 76 75 74 73 72 71 69 68 66 65 64 63 63 63 62 61 60
76 73 69 63 59 56 53 51 49 47 46 45 45 44 44 46 50 56 65 74 81 85 85 84 82 81 79 78 77 77 76 75 73 72 70 69 68 67 66 65 65 64 63
71 66 60 56 53 52 51 49 47 46 44 43 42 41 41 41 42 44 49 57 67 76 82 85 86 85 83 81 80 80 79 78 78 76 74 73 72 70 69 68 67 67 66
65 59 55 52 52 51 50 49 48 47 45 43 41 40 39 38 38 38 40 44 51 60 70 77 83 86 86 85 84 83 83 82 81 80 78 77 75 74 73 72 70 69 69
60 55 53 52 53 53 52 51 51 49 47 45 43 41 38 37 35 35 35 36 39 45 54 63 71 78 84 86 86 86 85 85 84 83 82 80 79 78 77 75 74 73 72
Wind_Direction
252 251 252 251 251 251 252 253 255 257 258 260 262 265 267 267 265 262 260 256 251 246 243 241 239 238 238 238 240 242 244 246 250 253 255 258 260 261 258 252 243 236 231
261 259 258 258 258 257 257 257 258 259 260 261 262 263 265 265 263 261 260 257 253 249 245 243 242 241 240 240 241 243 244 246 249 252 255 257 259 260 260 257 251 243 236
270 268 265 263 263 262 262 262 263 263 264 264 264 264 263 263 261 260 258 257 254 250 247 244 242 242 241 241 242 244 245 247 249 251 254 257 258 259 260 259 255 249 242
282 277 273 269 267 266 266 266 266 266 266 265 264 264 263 262 261 260 258 256 254 251 248 246 244 243 242 242 243 245 246 248 249 250 253 255 257 257 258 257 255 251 246
285 281 277 274 270 269 268 268 267 267 266 266 264 263 262 262 261 259 258 257 255 252 249 247 246 244 243 243 244 245 246 248 250 252 253 254 255 255 255 255 254 251 247
288 284 281 278 275 272 271 270 269 268 267 266 265 264 263 263 262 260 259 257 255 253 250 248 246 245 244 243 244 245 246 248 250 252 253 254 254 254 254 254 253 250 246
288 286 284 282 279 277 275 272 270 269 267 267 266 264 263 263 262 262 260 259 256 255 252 250 248 246 244 243 243 244 245 246 248 250 252 253 253 253 252 252 251 249 246
292 290 288 287 285 282 280 277 274 272 270 268 266 265 263 262 260 260 259 258 257 256 254 252 250 247 245 243 243 243 244 245 246 248 249 250 251 251 251 250 250 249 245
300 297 295 292 290 287 285 282 279 276 273 270 267 266 264 263 261 260 258 257 256 255 254 253 251 249 248 246 244 243 243 244 245 246 247 247 248 249 249 248 248 247 244
304 301 298 295 292 289 287 284 282 279 277 274 271 268 266 264 262 260 258 257 255 254 253 252 252 251 249 248 246 245 243 243 243 244 245 244 244 246 247 246 245 244 242
305 302 298 295 292 289 287 284 282 280 277 275 273 270 268 265 263 261 259 257 255 253 252 252 251 251 250 249 248 246 244 243 243 243 243 243 242 243 244 244 241 240 240
306 303 300 297 294 291 288 285 283 280 278 276 274 271 269 266 264 261 260 258 256 254 252 251 250 249 249 249 248 247 245 243 242 241 242 241 241 241 241 241 239 237 237
305 303 300 298 295 292 289 287 284 281 279 276 274 272 270 268 265 263 260 258 256 254 253 252 250 248 247 246 246 246 245 243 241 240 240 239 239 239 239 239 237 234 234
302 300 298 295 293 290 288 286 283 281 278 276 274 271 269 267 265 264 262 260 257 255 253 252 250 249 248 247 246 246 244 242 241 239 239 238 237 237 237 237 237 234 232
300 298 296 293 291 289 287 285 283 280 278 275 273 270 268 266 263 262 261 259 258 256 254 252 250 249 248 248 247 246 244 242 241 239 238 236 236 236 236 236 235 233 230
299 297 295 293 292 290 287 285 283 281 278 276 273 271 268 266 263 261 259 258 256 255 254 252 250 249 247 247 247 246 245 243 241 239 237 235 235 234 235 235 234 233 230
299 297 296 295 293 291 290 287 285 282 279 276 273 271 268 266 263 261 258 256 255 253 252 251 250 249 247 246 245 245 244 243 241 239 237 235 234 233 234 235 234 233 231
301 300 299 298 296 294 292 289 286 283 280 276 273 270 268 265 263 260 258 256 254 252 251 250 249 248 247 245 244 243 242 242 241 239 237 235 234 233 233 234 234 234 232
304 303 302 301 299 297 295 293 290 287 283 279 275 270 267 264 262 260 257 255 253 251 250 249 247 246 245 245 244 243 241 240 239 238 236 235 233 233 233 233 234 234 234
308 307 306 304 302 301 299 298 296 294 290 286 280 274 269 264 261 259 256 255 252 250 249 247 246 245 244 243 242 242 241 240 239 238 237 236 234 233 232 232 233 234 235
311 309 308 306 305 305 304 304 303 301 298 293 287 280 274 267 262 258 255 253 251 250 248 246 245 243 242 242 241 240 240 240 239 238 237 236 236 234 232 232 232 233 234
312 311 309 308 308 309 309 310 309 308 306 303 298 291 283 274 266 260 255 252 250 249 247 245 244 242 241 241 240 238 238 238 238 237 237 236 236 235 234 233 233 233 234
313 311 310 311 311 312 313 312 312 311 310 307 304 300 294 286 276 267 260 254 250 247 246 245 243 242 240 239 239 238 237 236 236 236 236 236 236 236 235 235 234 234 234
314 313 313 313 313 313 313 312 311 310 309 307 305 302 298 293 286 277 268 260 253 248 246 244 243 242 241 239 239 239 238 237 236 236 236 235 235 235 235 236 235 235 235
316 316 315 314 314 313 312 311 309 308 307 306 304 303 301 296 291 284 276 267 258 251 247 244 243 242 241 240 239 239 239 238 237 236 235 235 235 235 235 236 236 236 235
318 317 316 315 314 312 311 309 308 307 305 303 302 300 299 296 292 287 280 272 264 257 250 246 243 242 242 241 241 240 240 240 239 238 237 235 235 235 235 235 236 236 236
Height
5868 5867 5867 5867 5866 5866 5866 5866 5866 5865 5865 5865 5864 5864 5863 5863 5862 5862 5861 5861 5860 5860 5860 5860 5860 5860 5860 5860 5861 5861 5862 5863 5863 5863 5863 5863 5863 5863 5863 5864 5864 5864 5865
5865 5864 5863 5862 5862 5862 5861 5861 5861 5861 5860 5860 5859 5859 5858 5858 5858 5857 5857 5856 5856 5856 5855 5855 5856 5856 5856 5857 5857 5858 5859 5860 5860 5860 5861 5861 5861 5861 5861 5862 5862 5862 5863
5861 5860 5859 5858 5857 5857 5856 5856 5856 5855 5855 5854 5854 5853 5853 5853 5852 5852 5851 5851 5851 5851 5850 5850 5851 5851 5852 5852 5853 5854 5855 5856 5857 5857 5857 5858 5858 5858 5859 5859 5859 5860 5861
5856 5855 5854 5853 5852 5851 5851 5850 5850 5850 5849 5849 5848 5847 5847 5847 5846 5846 5846 5845 5845 5845 5845 5845 5845 5846 5847 5847 5848 5849 5850 5851 5852 5853 5853 5854 5854 5855 5856 5856 5856 5857 5858
5852 5851 5850 5849 5848 5847 5846 5845 5844 5843 5843 5842 5841 5841 5840 5840 5839 5839 5839 5838 5838 5838 5838 5839 5839 5840 5840 5841 5842 5843 5844 5845 5847 5848 5849 5850 5850 5851 5851 5852 5853 5853 5854
5849 5848 5846 5845 5843 5842 5841 5840 5839 5837 5836 5835 5835 5834 5833 5833 5832 5832 5831 5831 5831 5831 5832 5832 5832 5833 5834 5835 5836 5836 5837 5839 5841 5843 5844 5844 5845 5846 5847 5847 5848 5849 5850
5846 5844 5842 5841 5839 5837 5836 5834 5833 5831 5830 5829 5828 5827 5826 5825 5825 5824 5824 5824 5824 5824 5824 5824 5825 5825 5826 5827 5829 5830 5831 5832 5834 5836 5838 5839 5839 5840 5841 5842 5843 5844 5845
5843 5841 5839 5836 5834 5832 5830 5828 5827 5825 5823 5822 5820 5819 5818 5817 5816 5815 5815 5815 5815 5816 5816 5816 5817 5818 5819 5820 5821 5822 5824 5826 5827 5829 5830 5832 5833 5834 5835 5836 5838 5839 5840
5839 5837 5834 5832 5829 5826 5824 5821 5819 5817 5815 5813 5812 5810 5809 5808 5807 5806 5805 5805 5805 5806 5806 5807 5808 5809 5810 5812 5813 5815 5817 5818 5820 5821 5823 5825 5827 5828 5829 5830 5832 5833 5834
5835 5832 5829 5826 5823 5819 5816 5814 5811 5808 5806 5804 5802 5801 5799 5798 5797 5796 5795 5795 5795 5796 5796 5797 5798 5799 5801 5803 5805 5807 5809 5810 5812 5813 5815 5817 5819 5821 5822 5824 5826 5827 5828
5830 5827 5823 5819 5816 5812 5809 5805 5802 5799 5796 5794 5792 5790 5789 5787 5786 5785 5785 5784 5785 5785 5785 5786 5787 5789 5791 5793 5795 5797 5799 5802 5804 5805 5807 5809 5812 5814 5815 5817 5819 5821 5822
5825 5821 5817 5813 5809 5804 5800 5796 5793 5789 5786 5783 5781 5779 5777 5776 5775 5774 5774 5774 5774 5774 5774 5775 5775 5777 5779 5782 5783 5785 5788 5792 5794 5796 5798 5801 5803 5806 5808 5809 5811 5814 5816
5819 5814 5809 5804 5800 5795 5790 5786 5782 5778 5775 5772 5769 5767 5765 5763 5762 5761 5761 5761 5762 5762 5763 5763 5764 5765 5767 5768 5770 5773 5776 5780 5783 5787 5789 5792 5794 5797 5799 5801 5804 5806 5809
5811 5806 5800 5794 5789 5783 5778 5773 5769 5765 5761 5758 5755 5753 5751 5750 5748 5747 5747 5747 5748 5749 5750 5751 5752 5753 5755 5756 5758 5761 5764 5767 5771 5775 5779 5782 5785 5788 5791 5793 5796 5798 5801
5801 5795 5788 5782 5776 5770 5764 5758 5753 5748 5744 5741 5739 5736 5735 5734 5733 5732 5732 5732 5733 5734 5736 5737 5739 5740 5742 5744 5746 5749 5752 5755 5759 5763 5768 5772 5775 5779 5781 5784 5787 5790 5793
5789 5782 5775 5767 5760 5753 5747 5740 5735 5730 5725 5722 5719 5717 5715 5714 5714 5714 5715 5715 5717 5718 5720 5722 5724 5726 5728 5731 5734 5737 5739 5743 5746 5751 5755 5760 5764 5769 5772 5775 5778 5781 5785
5777 5769 5761 5752 5744 5736 5729 5722 5715 5709 5704 5700 5697 5694 5693 5693 5693 5694 5695 5696 5698 5700 5703 5705 5708 5711 5714 5717 5720 5723 5726 5730 5734 5738 5743 5748 5753 5758 5762 5766 5769 5773 5776
5763 5753 5744 5735 5726 5717 5708 5700 5693 5686 5681 5676 5672 5670 5669 5669 5669 5671 5672 5675 5678 5681 5684 5687 5690 5694 5698 5701 5705 5708 5712 5717 5721 5726 5730 5735 5740 5746 5751 5756 5760 5763 5767
5746 5736 5726 5715 5705 5695 5685 5675 5667 5660 5654 5649 5645 5643 5642 5642 5643 5645 5648 5651 5655 5659 5663 5667 5671 5676 5680 5684 5688 5693 5697 5702 5707 5712 5717 5722 5727 5733 5739 5745 5749 5754 5758
5729 5717 5705 5693 5682 5671 5661 5651 5642 5634 5627 5621 5617 5614 5614 5614 5616 5618 5622 5626 5631 5636 5641 5646 5651 5656 5661 5666 5671 5676 5682 5687 5692 5698 5704 5709 5714 5720 5726 5732 5737 5743 5748
5711 5698 5685 5673 5661 5650 5641 5631 5623 5614 5606 5599 5593 5588 5586 5586 5587 5590 5595 5600 5605 5611 5617 5623 5629 5635 5641 5646 5652 5658 5665 5670 5676 5683 5689 5695 5701 5706 5712 5718 5724 5730 5736
5694 5680 5667 5655 5644 5633 5624 5615 5606 5598 5591 5583 5576 5570 5564 5562 5561 5563 5566 5572 5578 5585 5592 5599 5606 5613 5620 5626 5632 5639 5647 5654 5660 5666 5672 5679 5685 5691 5698 5704 5710 5717 5723
5678 5664 5651 5640 5630 5621 5611 5603 5595 5587 5578 5571 5564 5556 5549 5544 5541 5540 5541 5545 5551 5558 5566 5574 5581 5589 5598 5605 5611 5619 5627 5635 5641 5648 5656 5662 5669 5676 5683 5689 5696 5703 5709
5662 5649 5637 5627 5618 5609 5600 5592 5584 5576 5568 5560 5553 5546 5539 5532 5527 5524 5522 5523 5526 5532 5539 5548 5556 5565 5574 5583 5590 5597 5606 5614 5622 5630 5637 5645 5651 5659 5666 5674 5681 5688 5695
5647 5635 5625 5616 5607 5598 5589 5581 5573 5565 5557 5549 5542 5535 5529 5522 5516 5512 5509 5507 5508 5510 5516 5523 5531 5541 5550 5559 5568 5576 5584 5592 5601 5609 5619 5626 5633 5641 5649 5656 5664 5672 5680
5634 5624 5614 5605 5596 5586 5577 5568 5560 5552 5545 5537 5531 5525 5518 5512 5507 5502 5498 5496 5495 5495 5498 5502 5509 5517 5526 5535 5545 5554 5562 5570 5579 5588 5597 5606 5614 5623 5630 5639 5647 5656 5664